Weather reports worldwide

Advertisment
Aberdeen/Dyce, United Kingdom (3091): temperature & dewpoint: 30.03.2020 21:00:00 - 05.04.2020 21:00:00 (BST)Aberdeen/Dyce, United Kingdom (3091): temperature -20cm & temperature -100cm: 30.03.2020 21:00:00 - 05.04.2020 21:00:00 (BST)Aberdeen/Dyce, United Kingdom (3091): wind speed & gusts: 30.03.2020 21:00:00 - 05.04.2020 21:00:00 (BST)Aberdeen/Dyce, United Kingdom (3091): wind direction: 30.03.2020 21:00:00 - 05.04.2020 21:00:00 (BST)Aberdeen/Dyce, United Kingdom (3091): reduced air pressure: 30.03.2020 21:00:00 - 05.04.2020 21:00:00 (BST)Aberdeen/Dyce, United Kingdom (3091): visibility: 30.03.2020 21:00:00 - 05.04.2020 21:00:00 (BST)Aberdeen/Dyce, United Kingdom (3091): sunshine duration: 30.03.2020 21:00:00 - 05.04.2020 21:00:00 (BST)Aberdeen/Dyce, United Kingdom (3091): precipitation: 30.03.2020 21:00:00 - 05.04.2020 21:00:00 (BST)
Date & Time tt [°C] td [°C] tt -20cm [°C] tt -100cm [°C] ff [km/h] ff [kn] fx [km/h] fx [kn] dd ppp [hPa] vv [km] sd [min] rr [mm]
05.04.2020 21:00:00 8,6 4,9 - - 29 16 46 25 S 1003,0 10 0 0,0
05.04.2020 20:00:00 8,3 4,6 - - 35 19 52 28 SSE 1003,4 10 0 0,0
05.04.2020 19:00:00 8,7 4,5 - - 39 21 54 29 SSE 1004,0 10 6 0,0
05.04.2020 18:00:00 9,7 4,7 - - 39 21 54 29 S 1005,0 10 12 0,0
05.04.2020 17:00:00 9,5 4,6 - - 28 15 46 25 SSE 1006,2 10 0 0,0
05.04.2020 16:00:00 9,8 4,4 - - 35 19 54 29 SSE 1006,9 10 42 0,0
05.04.2020 15:00:00 10,9 4,4 - - 37 20 61 33 SSE 1008,2 10 60 0,0
05.04.2020 14:00:00 11,0 3,5 - - 42 23 63 34 S 1009,2 12 54 0,0
05.04.2020 13:00:00 10,6 4,0 - - 41 22 57 31 S 1009,0 10 0 0,0
05.04.2020 12:00:00 9,4 4,7 - - 35 19 48 26 S 1010,2 10 0 0,0
05.04.2020 11:00:00 8,9 3,7 - - 31 17 50 27 S 1011,2 10 0 0,0
05.04.2020 10:00:00 8,1 4,2 5,7 6,2 29 16 52 28 S 1011,5 10 0 0,0
05.04.2020 09:00:00 7,7 4,5 - - 24 13 - - S 1012,1 17 0 0,0
05.04.2020 08:00:00 7,4 4,2 - - 26 14 - - SSE 1012,5 10 36 0,0
05.04.2020 07:00:00 6,4 4,2 - - 11 6 - - S 1012,7 10 0 0,0
05.04.2020 06:00:00 6,2 3,7 - - 5 3 - - - 1012,5 10 0 0,0
05.04.2020 05:00:00 6,2 3,2 - - 9 5 - - ENE 1012,1 10 0 0,0
05.04.2020 04:00:00 6,9 3,8 - - 15 8 - - SSE 1012,4 10 0 0,0
05.04.2020 03:00:00 7,7 4,3 - - 29 16 46 25 S 1012,0 10 0 0,0
05.04.2020 02:00:00 8,2 4,3 - - 22 12 - - S 1012,5 10 0 0,0
05.04.2020 01:00:00 8,7 4,1 - - 29 16 - - SSE 1012,7 10 - 0,0
05.04.2020 00:00:00 8,0 3,1 - - 21 11 - - SSE 1013,1 10 0 0,0
04.04.2020 23:00:00 7,8 2,9 - - 21 11 - - S 1013,4 10 0 0,0
04.04.2020 22:00:00 8,1 2,3 - - 18 10 - - SSE 1013,2 10 0 0,0
04.04.2020 21:00:00 8,3 3,2 - - 21 11 - - S 1013,3 10 0 0,0
04.04.2020 20:00:00 8,4 3,7 - - 22 12 - - S 1013,2 10 0 0,0
04.04.2020 19:00:00 8,7 3,8 - - 16 9 - - S 1013,2 10 0 0,0
04.04.2020 18:00:00 8,9 3,6 - - 16 9 - - S 1013,1 10 0 0,0
04.04.2020 17:00:00 9,7 3,9 - - 18 10 - - S 1013,2 10 0 0,0
04.04.2020 16:00:00 9,7 3,3 - - 21 11 - - S 1013,5 10 0 0,0
04.04.2020 15:00:00 9,9 3,1 - - 22 12 - - S 1013,6 10 24 0,0
04.04.2020 14:00:00 10,3 3,1 - - 18 10 - - SSW 1013,3 10 6 0,0
04.04.2020 13:00:00 10,0 3,1 - - 22 12 - - SSW 1013,2 10 0 0,0
04.04.2020 12:00:00 9,1 2,1 - - 26 14 - - SW 1012,9 10 0 0,0
04.04.2020 11:00:00 8,7 2,3 - - 22 12 - - SW 1013,0 10 0 0,0
04.04.2020 10:00:00 7,8 2,3 5,4 6,2 18 10 - - SW 1012,8 10 0 0,0
04.04.2020 09:00:00 6,7 2,5 - - 18 10 - - SW 1012,5 10 0 0,0
04.04.2020 08:00:00 3,5 2,2 - - 8 4 - - ESE 1012,3 10 0 0,0
04.04.2020 07:00:00 2,2 1,2 - - 4 2 - - - 1012,2 10 0 0,0
04.04.2020 06:00:00 2,3 1,4 - - 2 1 - - - 1012,0 10 0 0,0
04.04.2020 05:00:00 1,8 0,9 - - 5 3 - - SSE 1012,0 10 0 0,0
04.04.2020 04:00:00 2,1 1,3 - - 2 1 - - - 1012,2 10 0 0,0
04.04.2020 03:00:00 2,4 1,9 - - 2 1 - - SSW 1012,4 50 0 0,0
04.04.2020 02:00:00 2,1 1,4 - - 2 1 - - - 1012,4 10 0 0,0
04.04.2020 01:00:00 2,2 0,9 - - 2 1 - - NNW 1012,6 10 - 0,0
04.04.2020 00:00:00 2,6 1,3 - - 2 1 - - - 1012,5 10 0 0,0
03.04.2020 23:00:00 3,3 1,7 - - 2 1 - - - 1012,2 10 0 0,2
03.04.2020 22:00:00 4,5 1,7 - - 8 4 - - NW 1012,1 10 0 0,2
03.04.2020 21:00:00 5,1 0,9 - - 2 1 - - S 1011,9 10 0 0,0
03.04.2020 20:00:00 5,3 1,1 - - 4 2 - - - 1011,7 10 0 0,0
03.04.2020 19:00:00 5,6 1,0 - - 8 4 - - NNW 1011,6 10 0 0,0
03.04.2020 18:00:00 6,2 -1,0 - - 2 1 - - N 1011,3 50 0 0,2
03.04.2020 17:00:00 7,2 -2,7 - - 11 6 - - NNW 1011,1 10 0 0,0
03.04.2020 16:00:00 7,6 -2,8 - - 9 5 - - N 1010,8 10 6 0,0
03.04.2020 15:00:00 8,5 -4,4 - - 9 5 - - NNW 1010,8 10 18 0,0
03.04.2020 14:00:00 7,5 -4,4 - - 15 8 - - NNW 1010,8 10 36 0,0
03.04.2020 13:00:00 7,9 -5,7 - - 22 12 - - WNW 1010,8 10 36 0,0
03.04.2020 12:00:00 7,3 -4,1 - - 21 11 - - WNW 1010,9 40 42 0,0
03.04.2020 11:00:00 5,6 -2,2 - - 13 7 - - W 1010,8 10 12 0,0
03.04.2020 10:00:00 5,2 -2,5 5,4 6,2 15 8 - - WSW 1010,4 10 48 0,0
03.04.2020 09:00:00 3,6 -4,0 - - 16 9 - - WSW 1010,3 30 60 0,0
03.04.2020 08:00:00 1,7 -4,5 - - 15 8 - - WSW 1010,3 50 42 0,0
03.04.2020 07:00:00 0,9 -4,8 - - 15 8 - - W 1010,2 10 0 0,0
03.04.2020 06:00:00 0,9 -4,6 - - 21 11 - - W 1010,2 10 0 0,0
03.04.2020 05:00:00 0,8 -4,5 - - 15 8 - - WSW 1010,0 10 0 0,0
03.04.2020 04:00:00 0,9 -4,3 - - 15 8 - - WSW 1009,9 10 0 0,0
03.04.2020 03:00:00 1,4 -4,1 - - 28 15 - - W 1009,8 50 0 0,0
03.04.2020 02:00:00 1,3 -4,1 - - 24 13 - - W 1009,9 40 0 0,0
03.04.2020 01:00:00 1,7 -4,3 - - 22 12 - - W 1009,8 10 - 0,0
03.04.2020 00:00:00 1,8 -4,4 - - 24 13 - - W 1009,8 10 0 0,0
02.04.2020 23:00:00 1,9 -4,1 - - 22 12 - - W 1009,4 10 0 0,0
02.04.2020 22:00:00 2,4 -5,4 - - 15 8 - - W 1009,2 10 0 0,0
02.04.2020 21:00:00 2,9 -6,4 - - 16 9 - - W 1008,7 10 0 0,0
02.04.2020 20:00:00 4,1 -6,6 - - 26 14 57 31 WNW 1008,1 45 24 0,0
02.04.2020 19:00:00 5,3 -7,3 - - 31 17 61 33 NW 1007,3 45 60 0,0
02.04.2020 18:00:00 5,9 -7,7 - - 37 20 63 34 WNW 1006,8 10 60 0,0
02.04.2020 17:00:00 5,3 -5,6 - - 42 23 78 42 NW 1006,7 10 60 0,0
02.04.2020 16:00:00 6,3 -8,2 - - 50 27 76 41 NW 1006,0 10 54 0,0
02.04.2020 15:00:00 6,3 -5,6 - - 48 26 80 43 NW 1005,6 22 54 0,0
02.04.2020 14:00:00 6,4 -5,4 - - 44 24 83 45 NW 1005,0 10 54 0,0
02.04.2020 13:00:00 6,1 -2,9 - - 46 25 78 42 NW 1004,4 10 54 0,0
02.04.2020 12:00:00 4,8 -0,7 - - 48 26 78 42 NW 1004,0 13 18 0,6
02.04.2020 11:00:00 4,5 -0,8 - - 41 22 68 37 NW 1003,4 10 18 0,0
02.04.2020 10:00:00 6,8 -0,2 5,7 6,2 34 18 78 42 W 1002,6 10 6 0,0
02.04.2020 09:00:00 8,2 -0,5 - - 34 18 57 31 WNW 1002,0 10 6 0,0
02.04.2020 08:00:00 8,3 1,2 - - 28 15 52 28 W 1001,8 10 0 0,0
02.04.2020 07:00:00 8,4 1,8 - - 31 17 55 30 W 1002,1 10 0 0,0
02.04.2020 06:00:00 6,8 -0,1 - - 9 5 - - WSW 1003,0 10 0 0,0
02.04.2020 05:00:00 5,4 -0,6 - - 13 7 - - SW 1004,0 10 0 0,0
02.04.2020 04:00:00 5,3 -1,0 - - 16 9 - - W 1005,8 10 0 0,0
02.04.2020 03:00:00 4,9 -0,9 - - 13 7 - - SW 1007,2 10 0 0,0
02.04.2020 02:00:00 5,6 -1,1 - - 13 7 - - W 1008,7 10 0 0,0
02.04.2020 01:00:00 5,5 -1,1 - - 11 6 - - WSW 1010,2 10 - 0,0
02.04.2020 00:00:00 5,9 -1,7 - - 13 7 - - WSW 1010,9 45 0 0,0
01.04.2020 23:00:00 5,5 0,1 - - 8 4 - - SSW 1012,0 10 0 0,0
01.04.2020 22:00:00 6,7 1,5 - - 9 5 - - W 1013,0 45 0 0,0
01.04.2020 21:00:00 8,3 2,1 - - 9 5 - - W 1013,6 10 0 0,0
01.04.2020 20:00:00 8,8 2,8 - - 11 6 - - WNW 1013,5 10 12 0,0
01.04.2020 19:00:00 9,5 4,5 - - 21 11 - - NW 1013,5 10 0 0,0
01.04.2020 18:00:00 10,9 3,9 - - 29 16 48 26 WNW 1013,7 10 18 0,0
01.04.2020 17:00:00 11,5 3,4 - - 28 15 55 30 WNW 1013,7 10 12 0,0
01.04.2020 16:00:00 11,6 2,6 - - 29 16 48 26 W 1014,1 10 12 0,0
01.04.2020 15:00:00 10,8 2,1 - - 24 13 - - W 1015,0 50 6 0,0
01.04.2020 14:00:00 10,3 1,6 - - 24 13 - - W 1015,7 10 0 0,0
01.04.2020 13:00:00 8,9 0,9 - - 26 14 - - W 1016,4 10 0 0,0
01.04.2020 12:00:00 8,4 0,4 - - 24 13 - - WNW 1017,4 35 0 0,0
01.04.2020 11:00:00 9,2 -0,4 - - 29 16 - - WNW 1018,0 10 48 0,0
01.04.2020 10:00:00 8,3 -0,4 5,7 6,2 31 17 46 25 W 1018,5 10 60 0,0
01.04.2020 09:00:00 6,8 0,3 - - 13 7 - - WSW 1019,4 10 36 0,0
01.04.2020 08:00:00 6,1 -0,2 - - 15 8 - - W 1020,0 45 0 0,0
01.04.2020 07:00:00 5,6 0,3 - - 13 7 - - WSW 1020,9 10 0 0,0
01.04.2020 06:00:00 5,6 0,6 - - 13 7 - - W 1021,9 10 0 0,0
01.04.2020 05:00:00 5,5 0,8 - - 15 8 - - WSW 1022,5 10 0 0,0
01.04.2020 04:00:00 5,8 0,4 - - 15 8 - - W 1023,6 10 0 0,0
01.04.2020 03:00:00 6,0 0,7 - - 15 8 - - W 1024,4 50 0 0,0
01.04.2020 02:00:00 5,9 1,2 - - 11 6 - - W 1025,1 10 0 0,0
01.04.2020 01:00:00 6,0 1,6 - - 13 7 - - W 1026,3 10 - 0,0
01.04.2020 00:00:00 6,2 1,6 - - 13 7 - - W 1027,1 10 0 0,0
31.03.2020 23:00:00 6,5 2,3 - - 16 9 - - W 1027,9 10 0 0,0
31.03.2020 22:00:00 6,8 2,4 - - 16 9 - - WNW 1028,5 10 0 0,0
31.03.2020 21:00:00 7,0 3,0 - - 9 5 - - W 1029,1 10 0 0,0
31.03.2020 20:00:00 7,5 2,1 - - 15 8 - - WNW 1029,1 10 0 0,0
31.03.2020 19:00:00 8,0 2,4 - - 22 12 - - NW 1029,4 40 0 0,0
31.03.2020 18:00:00 8,9 1,2 - - 21 11 - - NW 1029,7 10 6 0,0
31.03.2020 17:00:00 9,1 1,0 - - 21 11 - - NW 1030,4 10 6 -
31.03.2020 16:00:00 9,3 0,3 - - 22 12 - - WNW 1031,0 10 12 0,0
31.03.2020 15:00:00 9,5 2,1 - - 21 11 - - WNW 1031,6 10 18 0,0
31.03.2020 14:00:00 8,8 1,4 - - 22 12 - - NNW 1032,3 7 24 0,0
31.03.2020 13:00:00 7,8 2,4 - - 24 13 46 25 WNW 1033,1 10 6 0,0
31.03.2020 12:00:00 7,5 2,0 - - 26 14 - - WNW 1033,3 10 0 0,0
31.03.2020 11:00:00 7,4 2,2 - - 18 10 - - NW 1033,8 10 18 0,0
31.03.2020 10:00:00 6,8 2,4 5,7 6,2 18 10 - - W 1034,5 10 36 0,0
31.03.2020 09:00:00 5,7 2,3 - - 16 9 - - W 1034,8 10 30 0,0
31.03.2020 08:00:00 5,0 2,2 - - 15 8 - - W 1035,6 10 0 0,0
31.03.2020 07:00:00 4,7 2,0 - - 15 8 - - W 1035,7 10 0 0,0
31.03.2020 06:00:00 4,6 2,0 - - 13 7 - - W 1035,7 35 0 0,0
31.03.2020 05:00:00 4,8 2,1 - - 9 5 - - W 1035,7 10 0 0,0
31.03.2020 04:00:00 5,1 2,2 - - 9 5 - - W 1035,9 10 0 0,0
31.03.2020 03:00:00 5,3 2,5 - - 9 5 - - WNW 1036,3 10 0 0,0
31.03.2020 02:00:00 5,3 2,8 - - 13 7 - - WNW 1036,7 10 0 0,0
31.03.2020 01:00:00 5,4 3,1 - - 13 7 - - WNW 1036,9 10 - 0,0
31.03.2020 00:00:00 5,2 3,3 - - 11 6 - - NW 1037,0 17 0 0,0
30.03.2020 23:00:00 5,3 3,3 - - 11 6 - - NW 1037,4 10 0 0,0
30.03.2020 22:00:00 5,7 4,1 - - 9 5 - - NW 1037,8 10 0 0,2
30.03.2020 21:00:00 5,8 4,6 - - 11 6 - - N 1037,6 10 0 0,2

tt = temperature
td = dewpoint
tt -20cm = temperature -20cm
tt -100cm = temperature -100cm
ff = wind speed
fx = gusts
dd = wind direction
ppp = reduced air pressure
vv = visibility
sd = sunshine duration
rr = precipitation

Next stations